Regional Weather Roundup
Issued by NWS

Home | Current Version | Previous Version | Graphics & Text | Print | Product List | Glossary On
Versions: 1 2 3 4 5 6 7 8 9 10 11 12 13 14 15 16 17 18 19 20 21 22 23 24 25 26 27 28 29 30 31 32 33 34 35 36 37 38 39 40 41 42 43 44 45 46 47 48 49 50
000
ASUS43 KDTX 250001
RWRMI
MICHIGAN HOURLY REGIONAL WEATHER ROUNDUP
NATIONAL WEATHER SERVICE DETROIT/PONTIAC MI
800 PM EDT SUN SEP 24 2017

NOTE: "FAIR" INDICATES FEW OR NO CLOUDS BELOW 12,000 FEET WITH NO
SIGNIFICANT WEATHER AND/OR OBSTRUCTION TO VISIBILITY.

MIZ047>049-052>055-059>063-066>070-074>076-081>083-250100-
SOUTHEAST LOWER MICHIGAN

CITY           SKY/WX    TMP DP  RH WIND       PRES   REMARKS
ADRIAN         CLEAR     78  60  53 SE5       30.09S
6HR MIN TEMP:  78; 6HR MAX TEMP:  91;

ALMA           CLEAR     80  54  40 CALM      30.06S
6HR MIN TEMP:  80; 6HR MAX TEMP:  94;

ANN ARBOR      CLEAR     76  63  64 CALM      30.08S
BAD AXE        CLEAR     75  65  71 CALM      30.09F HAZE
6HR MIN TEMP:  75; 6HR MAX TEMP:  90;

CARO           CLEAR     78  62  59 SE5       30.08S
DETROIT CITY   CLEAR     79  65  62 E5        30.08F
6HR MIN TEMP:  79; 6HR MAX TEMP:  88;

DETROIT        CLEAR     82  65  56 SE5       30.09S
6HR MIN TEMP:  81; 6HR MAX TEMP:  89;

FLINT          CLEAR     77  61  57 E5        30.08S
6HR MIN TEMP:  77; 6HR MAX TEMP:  91;

GROSSE ILE     CLEAR     76  68  76 CALM      30.07S
6HR MIN TEMP:  76; 6HR MAX TEMP:  83;

HILLSDALE      MOCLDY    72  59  64 E5        30.09S
HOWELL         CLEAR     79  59  50 SE6       30.09S
6HR MIN TEMP:  79; 6HR MAX TEMP:  91;


CITY           SKY/WX    TMP DP  RH WIND       PRES   REMARKS
JACKSON        CLEAR     82  56  40 E6        30.08S
6HR MIN TEMP:  82; 6HR MAX TEMP:  92;

LAMBERTVILLE   CLEAR     77  66  69 E3        30.08S
6HR MIN TEMP:  77; 6HR MAX TEMP:  89;

LANSING        CLEAR     83  56  39 SE6       30.07S
6HR MIN TEMP:  82; 6HR MAX TEMP:  92;

LAPEER         FAIR      77  62  59 CALM      30.09F
6HR MIN TEMP:  77; 6HR MAX TEMP:  91;

MASON          CLEAR     81  58  45 SE5       30.08S
MONROE         CLEAR     77  65  66 CALM      30.07F
6HR MIN TEMP:  77; 6HR MAX TEMP:  88;

MT. CLEMENS    CLEAR     76  69  79 CALM      30.07S
6HR MIN TEMP:  76; 6HR MAX TEMP:  86;

PONTIAC        CLEAR     82  65  56 SE6       30.09R
6HR MIN TEMP:  82; 6HR MAX TEMP:  90;

PORT HOPE        N/A     78  65  63 S5        30.07S
6HR MIN TEMP:  75; 6HR MAX TEMP:  83;

PORT HURON     CLEAR     73  68  83 CALM      30.10S
TRI CITIES     CLEAR     82  60  47 SE6       30.07S
6HR MIN TEMP:  82; 6HR MAX TEMP:  94;

MIDLAND        FAIR      82  57  41 CALM      30.05S
6HR MIN TEMP:  82; 6HR MAX TEMP:  94;

TROY           CLEAR     82  63  51 E3        30.11S
SAGINAW HB     CLEAR     81  59  47 SE5       30.06S
$$
MIZ043>046-050>051-056>058-064>065-071>073-077>080-250100-
SOUTHWEST LOWER MICHIGAN

CITY           SKY/WX    TMP DP  RH WIND       PRES   REMARKS
BATTLE CREEK   CLEAR     83  58  42 CALM      30.08S
6HR MIN TEMP:  83; 6HR MAX TEMP:  92; 6HR PCP: TRACE;

BENTON HARBOR  CLEAR     77  60  55 CALM      30.03S
6HR MIN TEMP:  77; 6HR MAX TEMP:  92;

BIG RAPIDS     CLEAR     77  63  61 W3        30.06R
6HR MIN TEMP:  77; 6HR MAX TEMP:  91;

COLDWATER      CLEAR     76  59  56 CALM      30.07F
6HR MIN TEMP:  76; 6HR MAX TEMP:  89;

FREMONT        FAIR      77  60  55 CALM      30.04S
HOLLAND        CLEAR     74  61  63 CALM      30.04F
6HR MIN TEMP:  74; 6HR MAX TEMP:  92;

GRAND RAPIDS   CLEAR     81  57  43 S5        30.05S
6HR MIN TEMP:  81; 6HR MAX TEMP:  94;

IONIA          FAIR      84  54  34 S3        30.05S
6HR MIN TEMP:  84; 6HR MAX TEMP:  93;

KALAMAZOO      CLEAR     82  55  39 CALM      30.06S
6HR MIN TEMP:  82; 6HR MAX TEMP:  92;

LUDINGTON      CLEAR     70  62  77 CALM      30.03S
6HR MIN TEMP:  70; 6HR MAX TEMP:  83;

MARSHALL       CLEAR     76  59  55 CALM      30.07S
6HR MIN TEMP:  76; 6HR MAX TEMP:  90;

MOUNT PLEASANT CLEAR     80  57  46 CALM      30.05S
6HR MIN TEMP:  80; 6HR MAX TEMP:  95;

MUSKEGON       CLEAR     75  59  57 CALM      30.04S
6HR MIN TEMP:  75; 6HR MAX TEMP:  89;

SOUTH HAVEN    CLEAR     74  64  69 CALM      30.04S
$$
MIZ016>042-250100-
NORTHERN LOWER MICHIGAN

CITY           SKY/WX    TMP DP  RH WIND       PRES   REMARKS
ALPENA         CLEAR     76  66  71 SE9       30.06S
6HR MIN TEMP:  74; 6HR MAX TEMP:  91;

BELLAIRE       CLEAR     74  67  79 CALM      30.03R
6HR MIN TEMP:  74; 6HR MAX TEMP:  92;

CADILLAC       CLEAR     80  55  41 SW5       30.07S
CHARLEVOIX     CLEAR     75  62  64 W8        30.07S
FRANKFORT      CLEAR     76  64  66 CALM      30.03F
GAYLORD        CLEAR     79  59  50 S5        30.07F
6HR MIN TEMP:  78; 6HR MAX TEMP:  89;

GRAYLING       CLEAR     75  61  60 CALM      30.08S
6HR MIN TEMP:  75; 6HR MAX TEMP:  90;

HARBOR SPRINGS CLEAR     73  69  86 CALM      30.03S
HOUGHTON LAKE  CLEAR     74  64  71 CALM      30.08S
6HR MIN TEMP:  74; 6HR MAX TEMP:  91;

MANISTEE       CLEAR     79  64  60 CALM      30.03S
OSCODA         CLEAR     75  65  71 SE5       30.07S
6HR MIN TEMP:  75; 6HR MAX TEMP:  90;

PELLSTON       CLEAR     74  65  73 CALM      30.04S
6HR MIN TEMP:  74; 6HR MAX TEMP:  92;

ROGERS CITY    CLEAR     81  65  59 S7        30.05S
TRAVERSE CITY  CLEAR     78  67  68 CALM      30.02R
6HR MIN TEMP:  78; 6HR MAX TEMP:  95;

$$
MIZ007>008-015-250100-
EASTERN UPPER MICHIGAN

CITY           SKY/WX    TMP DP  RH WIND       PRES   REMARKS
KINROSS        CLEAR     77  67  71 SE3       30.05S
6HR MIN TEMP:  77; 6HR MAX TEMP:  88;

MACKINAC ISLAN CLEAR     74  64  69 E3        30.04S
6HR MIN TEMP:  74; 6HR MAX TEMP:  85;

NEWBERRY       CLEAR     71  67  89 S6        30.02F FOG
6HR MIN TEMP:  71; 6HR MAX TEMP:  85;

S. S. MARIE    CLEAR     80  68  66 SE3       30.03S
6HR MIN TEMP:  80; 6HR MAX TEMP:  89;

MUNISING         N/A     78  67  68 S5        29.97S
6HR MIN TEMP:  78; 6HR MAX TEMP:  89;

$$
MIZ004>006-011>014-085-250100-
CENTRAL UPPER MICHIGAN

CITY           SKY/WX    TMP DP  RH WIND       PRES   REMARKS
MANISTIQUE     CLEAR     67  61  81 SE7       30.01S
6HR MIN TEMP:  67; 6HR MAX TEMP:  74;

ESCANABA       CLEAR     74  66  76 S8        29.99S
6HR MIN TEMP:  74; 6HR MAX TEMP:  81;

MENOMINEE      CLEAR     76  66  71 S6        30.00S
6HR MIN TEMP:  76; 6HR MAX TEMP:  88;

SAWYER-GWINN   CLEAR     79  66  65 S10       29.99S
$$
MIZ001>003-009>011-084-250100-
WESTERN UPPER MICHIGAN

CITY           SKY/WX    TMP DP  RH WIND       PRES   REMARKS
IRON MOUNTAIN  CLEAR     79  64  60 S7        29.98S
6HR MIN TEMP:  79; 6HR MAX TEMP:  89;

HOUGHTON       CLEAR     79  62  56 S5        29.91F
6HR MIN TEMP:  79; 6HR MAX TEMP:  89;

COPPER HARBOR    N/A     75  63  66 W7        29.89F
6HR MIN TEMP:  75; 6HR MAX TEMP:  86;

IRONWOOD       CLEAR     79  60  52 S6        29.91F
6HR MIN TEMP:  79; 6HR MAX TEMP:  87;

$$

ABBREVIATIONS USED IN REMARKS
   TC - TEMPERATURE IN CELSIUS
  WCI - WIND CHILL INDEX
   HX - HEAT INDEX
  VSB - VISIBILITY




USA.gov is the U.S. government's official web portal to all federal, state and local government web resources and services.